Lid_Strength_Index
4 6 7 6 5 6 6 7 8 6 6 7 7 7 6 5 5 5 5 4 4 3 2 2 1 1 1 0 0 0 0 -1 -0 0 1 0 1 -0 -0 -1 -1 -1 -1 -2
5 7 5 4 5 6 6 7 7 6 6 7 7 7 6 6 6 5 5 5 4 3 3 2 2 1 1 1 0 0 0 -0 -0 -0 -0 -0 -0 -0 -0 -1 -1 -1 -1 -1
6 5 5 5 6 6 6 7 7 7 6 6 7 11 7 6 5 5 4 4 4 4 3 3 2 2 1 1 1 0 0 -0 -0 -1 -0 -0 -0 -0 0 0 0 -0 -1 -1
5 4 5 6 6 6 8 6 6 7 7 12 6 11 8 7 7 6 5 4 4 4 3 2 2 2 1 1 0 0 0 -0 -0 -0 -0 0 1 1 1 0 0 -0 -1 -1
6 6 6 6 6 5 7 5 6 6 7 7 8 9 10 6 8 7 5 5 4 3 3 3 2 2 1 1 1 0 0 0 -0 -0 -0 0 1 0 0 0 0 -1 -1 -1
6 4 5 5 5 5 5 6 6 6 7 10 9 8 8 7 6 6 5 5 4 3 3 2 2 1 1 1 1 0 0 0 -0 -0 -0 0 0 0 1 0 1 1 0 -0
6 6 5 4 6 5 5 7 10 11 11 11 7 8 7 6 5 5 5 5 4 3 3 3 2 2 2 1 1 1 1 1 0 0 0 0 0 0 -0 0 1 -0 1 1
8 9 6 5 5 7 6 7 10 13 11 10 7 9 7 5 4 4 4 4 4 3 3 3 2 2 2 1 1 1 1 1 1 0 0 0 -0 0 0 0 0 0 0 0
8 8 5 5 5 5 7 8 6 8 8 10 8 7 6 5 5 5 4 4 4 3 3 3 2 2 2 1 1 1 1 1 1 1 0 0 0 0 0 -0 -0 0 -1 -0
6 8 6 5 5 5 6 5 8 8 12 12 10 9 9 7 6 5 5 5 4 3 3 3 2 2 2 1 1 1 1 1 1 0 0 1 0 0 -0 -0 -0 -0 -1 -1
5 7 7 6 7 7 7 7 7 7 8 11 11 10 5 6 5 6 5 4 4 3 3 3 2 2 1 1 1 1 1 1 1 1 0 0 0 0 0 0 -0 -0 -0 -0
5 6 8 7 5 5 5 6 7 9 9 8 9 9 5 5 5 4 5 4 3 3 3 2 2 2 2 1 1 1 1 1 1 0 0 1 0 0 0 0 -0 -0 0 -0
5 7 9 8 7 5 7 6 6 6 7 9 10 9 5 4 5 4 5 4 4 3 3 3 2 2 2 2 1 1 1 1 1 0 1 1 1 1 1 0 0 0 0 0
4 6 8 9 8 7 7 7 6 7 9 8 8 8 6 6 5 5 4 4 4 3 3 3 2 2 2 1 1 1 1 1 0 1 1 1 1 1 1 0 0 0 -0 0
5 7 7 7 6 7 7 7 7 7 7 8 7 7 7 5 5 5 4 4 4 4 3 3 3 2 2 2 2 1 1 1 1 1 1 1 1 0 0 0 0 0 0 0
5 7 7 9 6 7 7 7 7 7 7 7 7 7 4 4 4 5 4 4 5 4 3 3 2 2 2 2 2 2 1 1 1 1 1 1 1 1 1 1 0 1 0 0
6 7 8 11 8 7 9 7 7 6 6 6 7 6 4 5 5 5 5 4 4 4 4 3 3 2 2 2 1 2 2 1 1 1 1 1 1 1 1 1 3 7 5 1
6 7 7 15 12 13 7 5 5 6 6 5 5 5 5 5 4 4 3 4 4 4 3 3 2 2 1 1 1 1 1 1 1 2 1 1 1 1 2 6 6 2 1 3
4 6 8 10 11 12 10 6 6 7 7 5 5 5 5 4 4 5 3 3 3 3 3 2 2 2 1 1 1 1 1 2 2 2 1 1 1 4 5 5 4 3 1 1
7 5 8 9 11 14 9 7 5 4 9 5 5 5 5 5 7 6 3 3 3 2 2 2 2 2 1 1 1 1 2 2 2 2 4 5 4 5 3 2 2 1 1 2
12 11 10 10 10 8 7 6 5 12 10 5 5 5 5 6 5 4 3 3 2 2 2 1 2 2 2 1 1 2 2 2 2 2 2 3 1 1 2 1 1 1 1 1
13 15 15 10 10 12 5 5 8 7 5 5 4 4 5 4 4 3 3 3 2 2 2 2 2 2 2 1 1 2 2 2 1 1 1 1 1 2 1 1 1 1 1 1
10 9 9 9 12 8 4 5 4 4 4 4 4 3 3 4 4 3 3 3 2 2 2 2 2 2 2 1 2 3 2 1 1 1 1 1 1 1 1 1 1 2 2 2
9 7 9 7 8 8 5 4 3 3 3 3 3 3 3 3 3 3 3 2 2 2 2 1 2 3 3 2 2 2 1 1 2 2 1 1 1 1 1 1 1 2 2 2
8 9 9 7 5 5 4 4 3 3 3 3 3 3 3 3 3 3 3 2 2 2 1 1 2 2 2 2 2 1 1 1 2 2 2 1 1 1 1 1 1 1 1 2
5 8 9 8 6 6 5 3 3 3 3 3 3 3 2 2 3 2 2 2 2 2 2 2 2 2 2 2 2 1 1 1 2 2 2 2 2 2 2 2 2 11 8 10